Temperature
17 17 16 16 16 16 16 16 16 16 16 16 16 16 16 16 16 16 15 15 15 15 15 15 15 15 14 14 14 14 14 14 14 14 14 14 14 14
16 16 16 16 16 16 16 16 16 16 16 16 16 16 16 16 15 15 15 15 15 15 15 15 14 14 14 14 14 14 14 14 14 14 14 14 14 14
16 16 16 16 16 16 16 16 16 16 16 16 15 15 15 15 15 15 15 15 14 14 14 14 14 14 14 14 14 14 14 14 14 14 14 13 13 14
16 16 16 16 16 15 15 15 16 15 15 15 15 15 15 15 15 15 15 14 14 14 14 14 14 14 14 14 13 13 13 13 13 13 13 13 13 13
15 15 15 15 15 15 15 15 15 15 15 15 15 15 15 14 14 14 14 14 14 14 14 14 14 14 14 13 13 13 13 13 13 13 13 13 13 13
15 15 14 15 15 15 15 15 15 15 15 14 14 14 14 14 14 14 14 14 14 14 13 13 13 13 13 13 13 13 13 13 13 13 13 13 13 13
14 14 14 14 14 14 14 14 14 14 14 14 14 14 14 14 14 14 13 13 13 13 13 13 13 13 13 13 13 13 13 13 13 13 13 13 12 12
14 14 14 14 14 14 14 14 14 14 14 14 14 14 14 14 14 13 13 13 13 13 13 13 12 12 13 13 13 12 12 12 12 12 12 12 12 12
14 14 14 14 14 13 13 13 13 13 14 13 13 13 13 13 13 13 13 13 13 13 13 12 12 12 12 12 12 12 12 12 12 12 12 12 12 12
13 13 13 13 13 13 13 13 13 13 13 13 13 13 13 13 13 13 13 13 13 13 12 12 12 12 12 12 12 12 12 12 12 12 12 12 12 11
13 13 13 13 13 13 13 13 13 13 13 13 13 13 13 13 13 13 12 12 12 12 12 12 12 12 12 12 12 12 12 11 11 11 11 11 11 11
13 13 13 12 13 13 12 12 13 13 13 13 12 12 12 12 12 12 12 12 12 12 12 12 12 12 12 12 12 12 11 11 11 11 11 11 11 11
12 12 12 12 12 12 12 12 12 12 12 12 12 12 12 12 12 12 12 12 12 11 12 12 12 12 11 11 11 11 11 11 11 11 11 11 11 11
12 12 12 12 12 12 12 12 12 12 12 12 11 12 12 12 12 12 12 11 11 11 11 11 11 11 11 11 11 11 11 11 11 11 10 10 10 10
12 12 12 12 12 12 12 11 11 11 11 11 11 11 11 11 11 11 11 11 11 11 11 11 11 11 11 11 11 11 10 10 10 10 10 10 10 10
11 11 11 11 11 11 11 11 11 11 11 11 11 11 11 11 11 11 11 11 11 11 11 11 11 11 11 10 10 10 10 10 10 10 10 10 10 10
11 11 11 11 11 11 11 11 11 11 11 11 11 10 10 11 11 11 11 11 10 10 10 10 10 10 10 10 10 10 10 10 10 10 10 10 10 9
11 11 10 10 10 10 10 10 10 10 10 10 10 10 10 10 10 10 10 10 10 10 10 10 10 10 10 10 10 10 9 9 9 9 9 9 9 9
10 10 10 10 10 10 10 10 10 10 10 10 10 10 10 10 10 10 10 10 10 10 10 10 10 10 9 9 9 9 9 9 9 9 9 9 9 9
10 10 10 10 10 10 10 10 10 10 10 10 10 10 10 10 10 10 10 10 10 9 9 9 9 9 9 9 9 9 9 9 9 9 9 9 9 9
10 10 10 10 10 10 9 9 9 9 9 9 9 10 9 10 10 9 9 9 9 9 9 9 9 9 9 9 8 8 9 9 8 8 8 8 8 8
10 10 10 9 9 9 9 9 9 9 9 9 9 9 9 9 9 9 9 9 9 9 9 9 9 9 8 8 8 8 8 8 8 8 8 8 8 8
10 9 9 9 9 9 9 9 9 9 9 9 9 9 9 9 9 9 9 9 9 9 9 9 8 8 8 8 8 8 8 8 8 8 8 8 8 8
Wind_Speed
2 1 2 2 2 2 2 3 3 3 4 3 3 3 4 4 5 6 6 7 8 8 7 6 5 5 5 4 4 4 5 4 4 5 6 6 6 6
1 1 1 2 2 2 2 2 3 4 3 4 4 3 3 3 5 6 7 7 7 8 7 7 6 5 5 5 4 4 5 5 5 5 6 6 5 5
2 1 2 2 2 2 2 2 2 2 3 4 2 2 2 2 2 3 4 4 5 7 7 7 7 7 6 6 5 4 4 4 4 4 4 5 5 5
3 2 3 2 2 3 2 2 2 2 3 4 2 2 2 2 2 3 3 3 3 6 6 6 6 6 6 6 5 4 4 4 4 5 5 5 5 5
3 3 3 2 3 3 3 2 2 2 2 2 3 2 1 1 1 1 2 1 3 4 5 5 6 6 6 6 6 6 5 5 4 4 5 6 5 5
3 3 3 3 3 3 3 3 2 2 2 2 2 1 1 1 0 0 1 2 3 3 3 3 4 5 6 6 7 6 6 5 5 4 4 4 4 4
3 3 3 3 3 3 2 2 1 1 1 1 1 1 1 1 1 1 2 2 2 1 1 1 1 1 3 5 6 6 6 6 5 5 4 4 4 4
3 3 3 2 3 3 2 2 3 3 3 2 2 2 3 3 2 2 1 1 2 2 1 2 1 2 3 4 5 6 6 6 6 5 4 4 4 4
3 3 3 2 2 2 3 3 3 4 4 4 4 5 4 4 3 2 2 2 3 2 1 2 1 3 3 4 6 7 7 6 6 5 4 3 3 3
3 3 2 3 3 2 2 2 3 4 4 3 4 5 5 4 5 4 4 1 1 1 2 2 2 2 2 3 6 6 6 6 6 5 4 4 3 3
4 3 3 3 5 2 1 2 4 4 4 3 3 3 3 3 3 2 2 2 1 2 1 2 1 1 1 2 3 4 5 6 6 5 5 4 4 2
3 4 4 4 4 2 2 2 3 4 3 3 3 3 2 2 2 4 4 3 1 1 2 2 1 1 1 2 1 1 2 4 5 5 5 4 3 2
3 4 4 5 4 4 3 3 5 4 2 2 2 2 2 1 2 2 3 4 3 3 3 2 1 1 2 1 2 1 0 1 1 2 3 3 3 3
4 4 4 5 4 4 3 3 3 2 1 1 1 2 2 2 2 2 3 3 4 4 4 3 2 2 2 1 1 1 1 1 0 1 1 2 2 2
4 5 4 4 3 3 3 4 2 1 1 2 3 3 3 3 1 1 0 0 1 1 1 2 3 2 2 2 2 1 0 1 1 0 0 1 1 1
3 4 3 3 2 3 3 3 2 2 3 3 3 2 1 1 1 1 1 1 0 2 2 0 2 3 2 1 2 1 1 1 1 1 1 0 1 1
1 1 2 2 2 2 2 3 2 1 2 2 2 2 1 1 1 1 1 1 1 1 2 2 1 0 2 2 1 2 1 0 1 1 1 0 1 1
1 0 1 2 2 3 3 3 2 2 2 2 2 2 3 3 2 1 1 2 1 1 1 1 1 2 2 2 1 3 2 1 1 1 1 1 1 1
1 1 2 2 3 3 3 2 2 3 2 2 2 2 2 2 2 2 2 2 1 2 2 1 1 2 1 2 3 1 3 2 1 1 1 1 2 2
1 1 2 2 2 2 2 2 2 2 1 2 2 2 2 2 2 2 3 3 2 2 1 1 2 2 3 3 2 2 2 3 2 2 1 0 0 1
2 2 2 2 2 2 2 2 2 2 2 2 2 2 2 1 1 2 2 3 2 2 2 3 4 4 1 2 1 1 2 2 3 3 2 1 1 1
1 2 2 2 2 2 2 1 1 1 2 2 2 2 2 1 2 2 2 3 3 3 3 2 1 1 2 2 1 1 1 2 1 1 2 3 3 4
2 2 2 2 2 2 1 1 1 2 2 2 2 1 1 1 2 2 2 2 2 2 2 1 1 1 1 2 2 1 1 0 0 2 2 3 3 4
Wind_Direction
261 268 269 272 263 240 210 192 197 252 270 258 256 249 232 215 218 209 219 229 230 229 229 227 221 223 223 222 221 225 229 238 249 242 239 242 249 254
285 301 287 284 290 279 252 235 202 201 243 249 243 256 244 231 225 211 219 234 232 228 227 224 220 221 220 215 218 220 225 238 247 246 237 234 239 247
307 312 291 293 302 294 279 264 243 200 229 262 256 270 239 235 245 224 214 217 228 232 228 223 222 222 219 217 219 220 225 236 245 247 247 242 243 247
297 304 300 304 312 303 291 270 256 230 212 246 263 272 260 247 230 228 233 234 232 234 230 230 222 219 219 220 223 228 229 234 244 249 251 252 252 252
264 257 267 275 292 291 287 278 273 273 237 229 252 263 283 300 333 277 267 293 250 238 230 231 220 217 223 226 227 231 236 241 246 254 256 253 252 246
268 248 249 248 256 265 274 277 275 281 256 233 250 290 304 315 86 294 292 291 271 264 253 239 227 224 229 233 235 238 241 244 246 243 246 247 249 247
286 271 265 272 275 262 259 248 244 254 254 239 245 283 294 328 263 232 234 271 278 266 284 272 212 221 236 240 239 244 245 243 242 241 238 241 248 246
280 287 290 301 314 310 292 256 220 214 212 213 225 233 246 239 233 222 192 198 266 265 199 255 187 227 237 230 239 238 242 241 241 244 242 237 242 246
259 273 292 304 309 292 291 290 277 253 213 201 212 228 229 224 204 208 212 211 230 235 173 237 236 240 244 246 247 243 240 244 241 242 249 246 243 246
262 247 253 283 291 276 267 286 281 274 253 232 220 231 229 215 200 199 205 217 291 268 172 201 242 244 252 245 249 250 248 245 242 239 249 247 236 231
282 267 255 268 283 287 254 267 283 289 277 256 240 232 228 210 186 146 136 118 286 278 227 177 226 265 285 283 268 256 252 246 244 242 246 248 242 230
294 287 277 276 283 277 233 243 261 275 290 303 299 294 279 269 202 180 178 165 177 253 252 178 195 136 298 300 305 296 266 263 251 246 252 254 234 187
279 281 280 284 286 286 256 237 244 254 267 263 281 289 289 278 254 209 188 179 182 224 225 168 167 158 176 279 323 322 277 285 266 259 258 256 224 190
265 274 276 281 284 290 270 264 257 250 234 235 252 264 262 253 253 239 216 209 203 208 207 170 166 166 153 175 279 312 328 296 224 255 269 262 233 212
268 276 278 275 281 283 281 284 259 218 216 233 242 247 249 247 233 247 301 236 288 273 213 174 156 153 153 184 211 216 262 294 206 169 173 198 210 198
300 304 299 292 297 292 300 297 266 229 216 232 243 252 265 263 205 179 169 143 49 329 328 283 171 155 162 198 189 201 183 204 232 232 180 219 231 202
292 349 344 330 320 314 313 299 284 273 253 249 239 231 235 222 230 200 160 128 141 257 315 342 353 139 163 166 190 214 201 239 216 177 140 54 280 223
119 308 286 290 286 282 278 288 285 271 254 239 233 221 216 210 207 199 172 162 184 228 258 281 39 44 22 0 208 192 198 214 226 172 157 160 238 257
126 276 277 269 271 271 268 266 273 272 259 243 238 232 217 211 195 194 193 195 211 225 237 212 161 141 150 276 302 226 187 195 171 158 175 179 207 238
310 276 272 270 266 265 269 270 273 283 277 262 248 242 217 198 191 197 202 206 215 218 220 202 190 189 198 211 231 286 237 186 177 181 190 102 84 46
279 277 267 261 271 276 279 277 273 267 268 260 250 235 225 199 200 210 207 203 201 204 213 230 235 212 159 106 100 313 307 247 196 186 176 144 108 105
261 266 275 278 280 279 276 274 278 290 296 282 261 239 228 203 215 222 208 200 205 211 223 241 217 133 121 155 208 248 299 329 0 49 194 195 180 186
258 268 278 288 291 293 292 289 282 291 289 283 281 269 240 216 218 217 213 201 201 206 208 209 153 126 152 172 181 202 223 268 31 31 355 334 223 212
Height
1499 1499 1498 1498 1498 1497 1497 1496 1496 1494 1493 1492 1492 1491 1491 1490 1490 1489 1489 1488 1487 1487 1486 1485 1484 1484 1483 1483 1482 1482 1482 1481 1481 1481 1480 1481 1481 1481
1497 1496 1495 1495 1494 1494 1494 1493 1492 1491 1489 1489 1489 1488 1487 1487 1487 1486 1485 1485 1485 1484 1483 1482 1482 1481 1481 1480 1480 1479 1479 1478 1478 1477 1477 1477 1478 1478
1494 1493 1492 1492 1491 1491 1491 1490 1489 1489 1487 1486 1486 1485 1484 1483 1483 1483 1482 1482 1481 1481 1480 1480 1479 1479 1478 1478 1477 1477 1476 1475 1475 1474 1474 1474 1474 1475
1492 1491 1490 1489 1489 1488 1487 1486 1486 1485 1484 1483 1482 1482 1481 1481 1480 1480 1479 1479 1478 1478 1477 1477 1476 1476 1475 1475 1475 1474 1473 1473 1472 1471 1471 1471 1471 1471
1489 1488 1487 1486 1485 1484 1484 1483 1483 1482 1481 1480 1479 1479 1478 1478 1477 1476 1476 1475 1475 1474 1474 1473 1473 1473 1472 1472 1472 1471 1470 1470 1469 1469 1468 1468 1468 1468
1485 1485 1484 1483 1481 1481 1480 1480 1479 1478 1477 1476 1476 1475 1475 1474 1473 1473 1472 1472 1472 1471 1471 1470 1470 1470 1470 1469 1469 1469 1468 1467 1466 1466 1466 1466 1466 1466
1482 1481 1480 1479 1478 1478 1477 1476 1475 1474 1474 1473 1472 1472 1471 1471 1470 1470 1469 1469 1469 1469 1468 1468 1468 1468 1467 1467 1466 1466 1465 1464 1464 1464 1464 1463 1463 1463
1478 1478 1477 1476 1475 1474 1474 1473 1472 1471 1470 1470 1469 1469 1468 1468 1467 1467 1467 1466 1466 1467 1466 1466 1465 1465 1465 1465 1464 1463 1462 1462 1462 1461 1461 1461 1461 1461
1475 1474 1473 1473 1472 1471 1470 1469 1469 1468 1468 1467 1466 1465 1465 1464 1464 1464 1463 1463 1463 1463 1463 1463 1463 1463 1463 1462 1462 1461 1460 1460 1459 1459 1459 1459 1459 1459
1472 1471 1470 1469 1468 1467 1466 1466 1465 1465 1464 1464 1463 1462 1462 1461 1461 1461 1460 1461 1460 1460 1461 1461 1460 1460 1460 1460 1460 1459 1458 1458 1457 1457 1457 1457 1457 1457
1469 1467 1467 1466 1465 1464 1463 1462 1461 1461 1461 1460 1460 1459 1458 1458 1458 1457 1457 1457 1457 1457 1458 1458 1458 1458 1458 1458 1457 1457 1456 1456 1455 1455 1455 1455 1455 1456
1465 1464 1463 1462 1461 1460 1459 1459 1458 1457 1457 1456 1456 1456 1455 1455 1454 1454 1454 1454 1454 1455 1455 1456 1455 1456 1456 1455 1455 1455 1454 1454 1454 1454 1454 1454 1454 1454
1461 1460 1459 1459 1458 1457 1456 1456 1455 1454 1453 1453 1452 1452 1452 1452 1452 1452 1452 1452 1452 1452 1453 1453 1453 1453 1453 1453 1453 1453 1453 1452 1452 1452 1452 1452 1452 1452
1457 1456 1455 1455 1454 1454 1453 1452 1452 1451 1450 1450 1449 1449 1448 1449 1449 1449 1449 1450 1450 1450 1451 1451 1450 1450 1451 1451 1451 1451 1451 1451 1451 1450 1450 1450 1450 1450
1454 1453 1452 1451 1450 1450 1449 1449 1448 1447 1447 1446 1445 1445 1445 1446 1446 1446 1446 1447 1447 1447 1447 1448 1448 1448 1449 1449 1449 1449 1449 1449 1449 1449 1449 1448 1448 1448
1450 1449 1448 1447 1447 1446 1445 1445 1444 1444 1443 1443 1442 1442 1442 1443 1443 1443 1443 1444 1444 1444 1445 1445 1445 1446 1446 1446 1447 1447 1447 1448 1448 1447 1447 1447 1447 1447
1447 1446 1445 1444 1443 1442 1442 1442 1441 1441 1440 1440 1440 1439 1439 1440 1440 1440 1441 1441 1441 1441 1442 1442 1443 1443 1443 1444 1444 1445 1445 1445 1446 1446 1445 1445 1446 1446
1445 1443 1442 1441 1440 1440 1439 1439 1438 1438 1437 1437 1437 1437 1437 1437 1437 1438 1438 1438 1438 1439 1439 1440 1440 1440 1441 1441 1442 1442 1442 1443 1444 1444 1443 1443 1443 1444
1443 1441 1440 1439 1438 1437 1437 1436 1435 1435 1435 1435 1435 1434 1434 1434 1434 1435 1435 1436 1436 1436 1437 1437 1437 1437 1437 1437 1439 1440 1440 1440 1441 1441 1441 1441 1441 1442
1440 1439 1438 1437 1436 1435 1434 1433 1432 1432 1432 1431 1431 1431 1431 1431 1431 1432 1432 1433 1433 1433 1434 1434 1435 1435 1435 1436 1436 1437 1438 1438 1438 1439 1439 1439 1440 1440
1438 1437 1436 1435 1433 1432 1432 1431 1430 1429 1429 1428 1428 1428 1428 1428 1428 1429 1429 1430 1430 1431 1431 1431 1432 1433 1433 1434 1434 1434 1435 1436 1437 1437 1437 1437 1437 1438
1436 1435 1434 1433 1431 1430 1429 1428 1427 1427 1426 1426 1425 1426 1426 1426 1426 1426 1427 1427 1428 1428 1428 1429 1429 1430 1430 1431 1431 1432 1433 1434 1434 1435 1435 1436 1435 1436
1435 1433 1432 1431 1429 1428 1427 1426 1425 1424 1423 1423 1423 1423 1423 1423 1423 1424 1424 1425 1425 1425 1425 1425 1426 1427 1428 1429 1429 1430 1430 1431 1431 1432 1433 1434 1434 1435